Cheraw, SC

12:21 PM EDT on September 21, 2017 (GMT -0400)
Cheraw

Weather History for KCQW - January, 2013

Change the Weather History Date:

Monday, January 21, 2013

  Actual Average (KFLO) Record (KFLO)
Temperature  
Mean Temperature 46 °F -  
Max Temperature 62 °F 53 °F 79 °F (1959)
Min Temperature 30 °F 33 °F 0 °F (1985)
Degree Days  
Heating Degree Days 19    
Moisture  
Dew Point 32 °F    
Average Humidity 66    
Maximum Humidity 100    
Minimum Humidity 29    
Precipitation  
Precipitation 0.00 in - - ()
Sea Level Pressure  
Sea Level Pressure 30.02 in    
Wind  
Wind Speed 4 mph (SW)    
Max Wind Speed 22 mph    
Max Gust Speed 32 mph    
Visibility 10 miles    
Events      
Averages and records for this station are not official NWS values.
T = Trace of Precipitation, MM = Missing Value Source: NWS Daily Summary

Daily Weather History Graph

Daily Weather History Graph

Search for Another Location

Airport or City:

Trip Planner

Search our weather history database for the weather conditions in past years. The results will help you decide how hot, cold, wet, or windy it might be!

Date:

Astronomy

Jan. 21, 2013 Rise Set
Actual Time 7:24 AM EST 5:38 PM EST
Civil Twilight 6:57 AM EST 6:05 PM EST
Nautical Twilight 6:26 AM EST 6:36 PM EST
Astronomical Twilight 5:56 AM EST 7:06 PM EST
Moon 1:17 PM EST 2:50 AM EST
Length of Visible Light 11h 07m
Length of Day
10h 13m
Waxing Gibbous, 75% of the Moon is Illuminated
Jan 21
Waxing Gibbous
Jan 26
Full
Feb 3
Last Quarter
Feb 10
New
Feb 17
First Quarter

Hourly Weather History & Observations

Time (EST) Temp. Windchill Dew Point Humidity Pressure Visibility Wind Dir Wind Speed Gust Speed Precip Events Conditions
12:15 AM 37.4 °F - 35.6 °F 93% 30.09 in 10.0 mi Calm Calm - N/A   Clear
12:35 AM 37.4 °F - 35.6 °F 93% 30.08 in 10.0 mi Calm Calm - N/A   Clear
12:55 AM 35.6 °F - 33.8 °F 93% 30.08 in 10.0 mi Calm Calm - N/A   Clear
1:15 AM 35.6 °F - 33.8 °F 93% 30.07 in 10.0 mi Calm Calm - N/A   Clear
1:35 AM 35.6 °F - 33.8 °F 93% 30.07 in 10.0 mi Calm Calm - N/A   Clear
1:55 AM 37.4 °F - 33.8 °F 87% 30.07 in 10.0 mi Calm Calm - N/A   Clear
2:15 AM 33.8 °F - 33.8 °F 100% 30.07 in 10.0 mi Calm Calm - N/A   Clear
2:35 AM 35.6 °F - 33.8 °F 93% 30.07 in 10.0 mi Calm Calm - N/A   Clear
2:55 AM 33.8 °F - 32.0 °F 93% 30.07 in 10.0 mi Calm Calm - N/A   Clear
3:15 AM 33.8 °F - 32.0 °F 93% 30.07 in 10.0 mi Calm Calm - N/A   Clear
3:35 AM 33.8 °F - 32.0 °F 93% 30.07 in 10.0 mi Calm Calm - N/A   Clear
3:55 AM 33.8 °F - 32.0 °F 93% 30.07 in 10.0 mi Calm Calm - N/A   Clear
4:15 AM 33.8 °F - 32.0 °F 93% 30.07 in 10.0 mi Calm Calm - N/A   Clear
4:35 AM 32.0 °F - 32.0 °F 100% 30.07 in 10.0 mi Calm Calm - N/A   Clear
4:55 AM 32.0 °F - 32.0 °F 100% 30.07 in 10.0 mi Calm Calm - N/A   Clear
5:15 AM 32.0 °F - 32.0 °F 100% 30.06 in 10.0 mi Calm Calm - N/A   Clear
5:35 AM 32.0 °F - 32.0 °F 100% 30.06 in 10.0 mi Calm Calm - N/A   Clear
5:55 AM 32.0 °F - 32.0 °F 100% 30.06 in 10.0 mi Calm Calm - N/A   Clear
6:15 AM 32.0 °F - 32.0 °F 100% 30.06 in 10.0 mi Calm Calm - N/A   Clear
6:35 AM 32.0 °F - 32.0 °F 100% 30.06 in 10.0 mi Calm Calm - N/A   Clear
6:55 AM 32.0 °F - 32.0 °F 100% 30.06 in 10.0 mi Calm Calm - N/A   Clear
7:15 AM 32.0 °F - 32.0 °F 100% 30.06 in 10.0 mi Calm Calm - N/A   Clear
7:35 AM 30.2 °F - 30.2 °F 100% 30.06 in 10.0 mi Calm Calm - N/A   Clear
7:55 AM 32.0 °F - 32.0 °F 100% 30.07 in 10.0 mi Calm Calm - N/A   Clear
8:15 AM 32.0 °F - 32.0 °F 100% 30.07 in 10.0 mi Calm Calm - N/A   Clear
8:35 AM 35.6 °F - 33.8 °F 93% 30.07 in 10.0 mi Calm Calm - N/A   Clear
8:55 AM 37.4 °F - 35.6 °F 93% 30.08 in 10.0 mi Calm Calm - N/A   Clear
9:15 AM 41.0 °F - 37.4 °F 87% 30.09 in 10.0 mi Calm Calm - N/A   Clear
9:35 AM 44.6 °F 40.7 °F 33.8 °F 66% 30.10 in 10.0 mi North 6.9 mph - N/A   Clear
9:55 AM 46.4 °F - 32.0 °F 57% 30.10 in 10.0 mi Calm Calm - N/A   Clear
10:15 AM 48.2 °F - 32.0 °F 54% 30.10 in 10.0 mi Calm Calm - N/A   Clear
10:35 AM 51.8 °F - 32.0 °F 47% 30.08 in 10.0 mi ENE 9.2 mph - N/A   Clear
10:55 AM 53.6 °F - 32.0 °F 44% 30.07 in 10.0 mi ESE 8.1 mph - N/A   Clear
11:15 AM 53.6 °F - 30.2 °F 41% 30.06 in 10.0 mi SSE 5.8 mph - N/A   Clear
11:35 AM 55.4 °F - 30.2 °F 38% 30.04 in 10.0 mi SE 11.5 mph 23.0 mph N/A   Clear
11:55 AM 55.4 °F - 32.0 °F 41% 30.02 in 10.0 mi SSW 13.8 mph 18.4 mph N/A   Clear
12:15 PM 55.4 °F - 32.0 °F 41% 30.00 in 10.0 mi SSE 10.4 mph 16.1 mph N/A   Clear
12:35 PM 57.2 °F - 32.0 °F 38% 29.99 in 10.0 mi South 9.2 mph 20.7 mph N/A   Clear
12:55 PM 57.2 °F - 32.0 °F 38% 29.98 in 10.0 mi SSW 20.7 mph 24.2 mph N/A   Clear
1:15 PM 59.0 °F - 32.0 °F 36% 29.97 in 10.0 mi SW 20.7 mph 27.6 mph N/A   Clear
1:35 PM 59.0 °F - 32.0 °F 36% 29.96 in 10.0 mi SSW 6.9 mph 24.2 mph N/A   Clear
1:55 PM 60.8 °F - 32.0 °F 34% 29.95 in 10.0 mi SW 19.6 mph 28.8 mph N/A   Clear
2:15 PM 60.8 °F - 32.0 °F 34% 29.95 in 10.0 mi SW 17.3 mph 24.2 mph N/A   Clear
2:35 PM 60.8 °F - 32.0 °F 34% 29.93 in 10.0 mi SSW 19.6 mph 27.6 mph N/A   Clear
2:55 PM 60.8 °F - 30.2 °F 31% 29.93 in 10.0 mi SW 21.9 mph 32.2 mph N/A   Clear
3:15 PM 62.6 °F - 30.2 °F 30% 29.93 in 10.0 mi WSW 20.7 mph 32.2 mph N/A   Clear
3:55 PM 60.8 °F - 30.2 °F 31% 29.93 in 10.0 mi WSW 15.0 mph 23.0 mph N/A   Clear
4:15 PM 60.8 °F - 28.4 °F 29% 29.93 in 10.0 mi West 15.0 mph 32.2 mph N/A   Clear
4:35 PM 59.0 °F - 30.2 °F 34% 29.93 in 10.0 mi West 12.7 mph 18.4 mph N/A   Clear
4:55 PM 57.2 °F - 30.2 °F 36% 29.93 in 10.0 mi West 10.4 mph 18.4 mph N/A   Clear
5:15 PM 57.2 °F - 30.2 °F 36% 29.93 in 10.0 mi West 6.9 mph - N/A   Clear
5:35 PM 55.4 °F - 32.0 °F 41% 29.93 in 10.0 mi SW 6.9 mph - N/A   Clear
5:55 PM 53.6 °F - 32.0 °F 44% 29.94 in 10.0 mi SW 9.2 mph - N/A   Clear
6:15 PM 53.6 °F - 32.0 °F 44% 29.94 in 10.0 mi SW 8.1 mph - N/A   Clear
6:35 PM 53.6 °F - 32.0 °F 44% 29.94 in 10.0 mi SW 6.9 mph - N/A   Clear
6:55 PM 50.0 °F - 32.0 °F 50% 29.94 in 10.0 mi SW 9.2 mph - N/A   Clear
7:15 PM 50.0 °F - 32.0 °F 50% 29.94 in 10.0 mi SW 11.5 mph - N/A   Clear
7:55 PM 48.2 °F - 32.0 °F 54% 29.95 in 10.0 mi SW 13.8 mph - N/A   Clear
8:15 PM 48.2 °F - 32.0 °F 54% 29.95 in 10.0 mi WSW 15.0 mph 20.7 mph N/A   Clear
8:35 PM 48.2 °F - 32.0 °F 54% 29.95 in 10.0 mi WSW 13.8 mph 19.6 mph N/A   Clear
8:55 PM 50.0 °F - 32.0 °F 50% 29.96 in 10.0 mi WSW 16.1 mph 23.0 mph N/A   Clear
9:35 PM 48.2 °F - 30.2 °F 50% 29.99 in 10.0 mi WNW 9.2 mph 16.1 mph N/A   Clear
9:55 PM 48.2 °F - 30.2 °F 50% 29.99 in 10.0 mi WSW 3.5 mph - N/A   Clear
10:15 PM 46.4 °F 44.3 °F 30.2 °F 53% 30.00 in 10.0 mi West 4.6 mph - N/A   Clear
10:35 PM 44.6 °F - 30.2 °F 57% 30.01 in 10.0 mi Calm Calm - N/A   Clear
10:55 PM 42.8 °F - 30.2 °F 61% 30.01 in 10.0 mi Calm Calm - N/A   Clear
11:15 PM 37.4 °F - 30.2 °F 75% 30.01 in 10.0 mi Calm Calm - N/A   Clear
11:35 PM 44.6 °F 40.7 °F 28.4 °F 53% 30.00 in 10.0 mi WSW 6.9 mph - N/A   Clear
11:55 PM 42.8 °F 38.0 °F 28.4 °F 57% 30.01 in 10.0 mi WSW 8.1 mph - N/A   Clear